Showing default

SHARJAHSAT-1, 55104

Orbit data source: Space-Track

SHARJAHSAT-1, 55104 is a payload satellite owned by Sharjah SAAST (AE) in SSO that was launched on Tue, 03 Jan 2023 UTC via an FALCON 9 launch vehicle from the Air Force Eastern Test Range (AFETR). Payload-class satellites include a variety of spacecraft equipped with specific instruments for various scientific and technological missions. These include communications satellites like Starlink; space stations such as the ISS; scientific satellites like the Hubble; Earth observation satellites from companies like Planet Labs, Umbra, and HawkEye 360; GPS; miniature CubeSats for education and research; and military/defense satellites.

Loading next visibility...
Identifier
55104, 2023-001CZ
Orbit
SSO
Country
Flag of AEAE / UAE
Related business
Manufacturer
Sharjah SAAST
Mission
Operational Amateur Technology
Bus & Motor
CUBESAT 3U, Unknown motor
Mass
4 kg wet, 4 kg dry
Launch date (UTC)
2023-01-03 (3 years ago)
Launch vehicle
FALCON 9
Launch site
Air Force Eastern Test Range (AFETR)
Object type
Payload
Rocket body
Debris
Shape & HBR
Box, 0.1 m
Radar Cross Section
0.035 m², Small (<0.1 m²)

Expand to show TLE details & history
Last TLE update: 14 hours ago

TLE from 14 hours ago
0 SHARJAHSAT-1
1 55104U 23001CZ  25286.91093372  .00021724  00000-0  57525-3 0  9991
2 55104  97.3557 348.5876 0005752 273.9887  86.0701 15.38367506154496
Epoch: 2025-10-13T21:51Z
TLE epoch observation values (Epoch: 2025-10-13T21:51:44.673Z)
Latitude
0.00002°
Longitude
-2.05547°
Altitude
453.786 km
Speed
7.64 km/s
True Right ascension
23h 14m 21s
True Declination
0° 00' 00"
Sunlit
Object was in full shadow at epoch
Visualization orbit readout
Latitude
Unknown
Longitude
Unknown
Altitude
Unknown
Speed
Unknown
Apparent Right ascension
Unknown
Apparent Declination
Unknown
Sunlit
N/A
Visualization observer readout
Local Sidereal Time
06:15:15
Azimuth
Unknown
Elevation
Unknown
Doppler factor
Unknown
Orbital elements
Apogee altitude
451.802 km
Perigee altitude
443.949 km
Semi-major axis
6,826.013 km
Eccentricity
0.00058
Inclination
97.3557°
RAAN
348.5876°
Arg. of periapsis
273.9887°
True anomaly
86.13586°
Mean anomaly
86.0701°
Eccentric anomaly
86.10298°
Mean motion
3.84851 °/min
Orbital period
93.54 mins
BSTAR
0.00057525
Loading maneuver chart data...
Computing Atmospheric mass density...
Loading historical data...
Loading historical data...
Loading historical data...
Loading historical data...
Loading historical data...
Loading historical data...
Loading historical data...

Documentation

Showing up to 5 results
|